GW5240 Weather Reports


time (UTC)temp
F
wind
direction
speed
knots
gust
knots
rain 1hr
in
rain 24hr
in
rain mn
in
humidity
%
barometer
mb
20260506004343 48 166 3.5 4.3 0.00 0.00 0.00 40 1011.4
20260506003839 49 9 5.2 7.8 0.00 0.00 0.00 40 1011.5
20260506003335 49 274 0.9 2.6 0.00 0.00 0.00 40 1011.0
20260506002831 49 301 3.5 4.3 0.00 0.00 0.00 40 1011.2
20260506002328 49 337 2.6 4.3 0.00 0.00 0.00 40 1011.2
20260506001823 49 323 6.1 12.2 0.00 0.00 0.00 39 1011.1
20260506001321 49 13 2.6 2.6 0.00 0.00 0.00 40 1011.0
20260506000818 49 144 3.5 6.1 0.00 0.00 0.00 40 1010.8
20260506000316 49 291 2.6 2.6 0.00 0.00 0.00 39 1010.8
20260505235812 49 173 1.7 2.6 0.00 0.00 0.00 39 1010.8
20260505235310 49 289 4.3 6.1 0.00 0.00 0.00 39 1011.0
20260505234806 49 215 1.7 1.7 0.00 0.00 0.00 40 1010.8
20260505234304 49 7 3.5 4.3 0.00 0.00 0.00 39 1010.9
20260505233801 49 320 2.6 2.6 0.00 0.00 0.00 40 1010.7
20260505233259 49 335 4.3 7.8 0.00 0.00 0.00 39 1010.7
20260505232755 49 359 4.3 4.3 0.00 0.00 0.00 40 1010.8
20260505232253 49 177 0.0 1.7 0.00 0.00 0.00 40 1010.8
20260505231749 49 247 0.9 1.7 0.00 0.00 0.00 41 1010.8
20260505231248 49 272 1.7 4.3 0.00 0.00 0.00 40 1010.9
20260505230746 50 166 1.7 2.6 0.00 0.00 0.00 39 1010.8
20260505230242 50 242 1.7 1.7 0.00 0.00 0.00 39 1010.8
20260505225739 50 359 2.6 2.6 0.00 0.00 0.00 39 1010.9
20260505225236 51 204 2.6 4.3 0.00 0.00 0.00 39 1010.7
20260505224731 53 337 3.5 4.3 0.00 0.00 0.00 36 1010.7
20260505224229 52 349 3.5 6.1 0.00 0.00 0.00 37 1010.7
20260505223727 53 182 4.3 7.8 0.00 0.00 0.00 37 1010.8
20260505223223 52 192 3.5 4.3 0.00 0.00 0.00 39 1010.7
20260505222719 51 217 2.6 2.6 0.00 0.00 0.00 39 1010.7
20260505222215 51 168 3.5 6.1 0.00 0.00 0.00 39 1010.7
20260505221713 51 137 2.6 2.6 0.00 0.00 0.00 39 1010.7
20260505221209 50 322 2.6 4.3 0.00 0.00 0.00 39 1010.8
20260505220706 51 9 3.5 4.3 0.00 0.00 0.00 40 1010.8
20260505220204 51 257 4.3 7.8 0.00 0.00 0.00 39 1010.8
20260505215701 50 37 7.0 8.7 0.00 0.00 0.00 39 1011.0
20260505215159 50 310 3.5 4.3 0.00 0.00 0.00 40 1010.9
20260505214657 50 221 0.9 1.7 0.00 0.00 0.00 39 1010.7
20260505214154 50 57 3.5 4.3 0.00 0.00 0.00 39 1011.0
20260505213651 50 329 8.7 13.0 0.00 0.00 0.00 38 1010.8
20260505213148 51 0 4.3 6.1 0.00 0.00 0.00 38 1010.9
20260505212644 51 217 5.2 6.1 0.00 0.00 0.00 39 1010.7
20260505212142 51 72 2.6 2.6 0.00 0.00 0.00 38 1010.8
20260505211638 51 0 3.5 4.3 0.00 0.00 0.00 38 1010.8
20260505211136 51 172 0.0 1.7 0.00 0.00 0.00 41 1010.7
20260505210632 51 328 1.7 2.6 0.00 0.00 0.00 38 1010.9
20260505210129 51 187 1.7 2.6 0.00 0.00 0.00 38 1010.9
20260505205626 51 198 1.7 1.7 0.00 0.00 0.00 39 1010.9
20260505205125 51 154 1.7 1.7 0.00 0.00 0.00 38 1011.0
20260505204621 51 358 1.7 2.6 0.00 0.00 0.00 40 1011.1
20260505204119 51 322 1.7 2.6 0.00 0.00 0.00 40 1010.9
20260505203615 51 354 4.3 6.1 0.00 0.00 0.00 39 1011.0
20260505203113 51 12 4.3 4.3 0.00 0.00 0.00 39 1011.0
20260505202608 51 356 1.7 6.1 0.00 0.00 0.00 38 1011.0
20260505202104 52 283 6.1 8.7 0.00 0.00 0.00 37 1011.1
20260505201601 51 333 3.5 7.8 0.00 0.00 0.00 38 1011.1
20260505201059 51 220 1.7 2.6 0.00 0.00 0.00 39 1011.2
20260505200557 51 335 2.6 4.3 0.00 0.00 0.00 39 1011.3
20260505200053 52 262 3.5 4.3 0.00 0.00 0.00 38 1011.0
20260505195549 52 250 1.7 2.6 0.00 0.00 0.00 38 1011.1
20260505195047 52 112 1.7 1.7 0.00 0.00 0.00 41 1011.1
20260505194544 51 265 3.5 4.3 0.00 0.00 0.00 39 1011.2
20260505194039 51 158 1.7 2.6 0.00 0.00 0.00 39 1011.0
20260505193537 52 230 4.3 7.8 0.00 0.00 0.00 38 1011.1
20260505193034 52 7 6.1 7.8 0.00 0.00 0.00 37 1010.7
20260505192532 53 194 2.6 4.3 0.00 0.00 0.00 37 1011.0
20260505192030 54 188 1.7 2.6 0.00 0.00 0.00 37 1011.0
20260505191528 53 40 6.1 8.7 0.00 0.00 0.00 37 1011.1
20260505191026 53 240 2.6 4.3 0.00 0.00 0.00 36 1011.1
20260505190520 53 275 8.7 12.2 0.00 0.00 0.00 36 1011.0
20260505190016 53 295 3.5 7.8 0.00 0.00 0.00 37 1011.0
20260505185513 53 258 5.2 8.7 0.00 0.00 0.00 37 1011.1
20260505185009 52 282 2.6 2.6 0.00 0.00 0.00 38 1011.2
20260505184507 50 252 2.6 2.6 0.00 0.00 0.00 40 1011.1
20260505184003 50 334 2.6 4.3 0.00 0.00 0.00 39 1011.1
20260505183500 50 137 3.5 4.3 0.00 0.00 0.00 39 1011.0
20260505182956 51 199 1.7 2.6 0.00 0.00 0.00 39 1011.0
20260505182454 51 146 0.0 1.7 0.00 0.00 0.00 39 1011.0
20260505181950 50 299 1.7 2.6 0.00 0.00 0.00 40 1011.1
20260505181447 51 137 1.7 2.6 0.00 0.00 0.00 39 1011.1
20260505180944 51 114 5.2 7.8 0.00 0.00 0.00 38 1011.1
20260505180440 51 10 7.0 8.7 0.00 0.00 0.00 38 1011.0
20260505175937 51 188 1.7 1.7 0.00 0.00 0.00 38 1011.2
20260505175433 51 1 2.6 4.3 0.00 0.00 0.00 38 1011.2
20260505174930 51 333 6.1 7.8 0.00 0.00 0.00 36 1011.2
20260505174427 50 359 2.6 2.6 0.00 0.00 0.00 38 1011.3
20260505173923 51 189 2.6 6.1 0.00 0.00 0.00 37 1011.1
20260505173420 50 158 1.7 4.3 0.00 0.00 0.00 39 1011.0
20260505172917 50 13 2.6 2.6 0.00 0.00 0.00 39 1011.2
20260505172415 49 205 1.7 2.6 0.00 0.00 0.00 42 1011.3
20260505171914 50 7 1.7 2.6 0.00 0.00 0.00 38 1011.3
20260505171411 50 92 3.5 6.1 0.00 0.00 0.00 39 1011.2
20260505170908 50 206 0.9 2.6 0.00 0.00 0.00 39 1011.4
20260505170405 49 350 4.3 6.1 0.00 0.00 0.00 40 1011.2
20260505165900 48 193 1.7 1.7 0.00 0.00 0.00 40 1011.3
20260505165356 49 187 3.5 4.3 0.00 0.00 0.00 39 1011.3
20260505164852 50 311 7.8 10.4 0.00 0.00 0.00 36 1011.4
20260505164348 51 196 3.5 4.3 0.00 0.00 0.00 36 1011.3
20260505163847 51 196 1.7 1.7 0.00 0.00 0.00 37 1011.5
20260505163346 50 191 2.6 4.3 0.00 0.00 0.00 39 1011.2
20260505162844 50 173 0.9 1.7 0.00 0.00 0.00 39 1011.3
20260505162339 50 263 2.6 7.8 0.00 0.00 0.00 37 1011.3
20260505161837 48 289 3.5 4.3 0.00 0.00 0.00 39 1011.4
20260505161333 48 271 5.2 7.8 0.00 0.00 0.00 40 1011.1
20260505160831 49 225 1.7 2.6 0.00 0.00 0.00 37 1011.2
20260505160329 49 69 2.6 4.3 0.00 0.00 0.00 38 1011.2
20260505153308 48 46 5.2 7.8 0.00 0.00 0.00 40 1011.2
20260505152805 48 27 2.6 2.6 0.00 0.00 0.00 40 1011.4
20260505152304 48 91 1.7 2.6 0.00 0.00 0.00 40 1011.4
20260505151755 49 331 2.6 4.3 0.00 0.00 0.00 40 1011.1
20260505151253 48 210 4.3 6.1 0.00 0.00 0.00 42 1011.2
20260505150750 48 347 4.3 6.1 0.00 0.00 0.00 40 1011.3
20260505150247 47 234 1.7 2.6 0.00 0.00 0.00 45 1011.2
20260505140212 44 20 2.6 4.3 0.00 0.00 0.00 44 1010.7
20260505130136 40 247 1.7 1.7 0.00 0.00 0.00 47 1010.4
20260505124625 40 179 1.7 2.6 0.00 0.00 0.00 49 1010.1
20260505124121 40 14 4.3 7.8 0.00 0.00 0.00 49 1010.0
20260505123617 40 166 4.3 6.1 0.00 0.00 0.00 51 1010.1
20260505123114 40 60 3.5 4.3 0.00 0.00 0.00 52 1009.9
20260505122611 40 14 7.0 10.4 0.00 0.00 0.00 51 1009.8
20260505122108 39 48 5.2 8.7 0.00 0.00 0.00 54 1009.7
20260505121604 39 163 0.9 1.7 0.00 0.00 0.00 54 1009.6
20260505121101 39 17 1.7 2.6 0.00 0.00 0.00 54 1009.6
20260505120557 39 193 0.9 1.7 0.00 0.00 0.00 56 1009.6
20260505120053 39 268 1.7 4.3 0.00 0.00 0.00 57 1009.4
20260505115547 38 185 0.9 1.7 0.00 0.00 0.00 58 1009.2
20260505115045 38 168 0.9 2.6 0.00 0.00 0.00 58 1009.3
20260505114542 38 211 0.9 1.7 0.00 0.00 0.00 60 1009.0
20260505114038 38 291 4.3 6.1 0.00 0.00 0.00 61 1008.9
20260505113535 38 165 0.0 0.0 0.00 0.00 0.00 61 1009.0
20260505113032 38 171 0.0 0.0 0.00 0.00 0.00 62 1009.0
20260505112528 38 200 1.7 4.3 0.00 0.00 0.00 62 1008.7
20260505112027 38 187 0.0 0.0 0.00 0.00 0.00 63 1008.8
20260505111525 38 231 1.7 1.7 0.00 0.00 0.00 64 1008.6
20260505111022 38 182 1.7 1.7 0.00 0.00 0.00 64 1008.7
20260505110519 38 199 1.7 1.7 0.00 0.00 0.00 64 1008.6
20260505101951 39 296 2.6 4.3 0.00 0.00 0.00 63 1008.5
20260505101449 39 321 1.7 1.7 0.00 0.00 0.00 63 1008.4
20260505100945 39 173 0.0 0.0 0.00 0.00 0.00 63 1008.4
20260505100443 39 158 0.0 0.0 0.00 0.00 0.00 63 1008.3
20260505095939 39 188 2.6 4.3 0.00 0.00 0.00 62 1008.3
20260505095436 39 219 0.0 0.0 0.00 0.00 0.00 62 1008.3
20260505094932 39 269 1.7 2.6 0.00 0.00 0.00 62 1008.2
20260505094429 40 157 0.0 0.0 0.00 0.00 0.00 62 1008.1
20260505093925 40 193 0.9 1.7 0.00 0.00 0.00 61 1008.3
20260505093422 40 284 0.9 1.7 0.00 0.00 0.00 61 1008.2
20260505092919 40 194 0.9 1.7 0.00 0.00 0.00 61 1008.0
20260505092417 40 242 0.9 1.7 0.00 0.00 0.00 60 1008.2
20260505091914 40 140 2.6 2.6 0.00 0.00 0.00 60 1007.9
20260505091412 40 325 3.5 4.3 0.00 0.00 0.00 60 1008.0
20260505090909 40 170 0.0 0.0 0.00 0.00 0.00 60 1007.8
20260505090408 40 184 0.9 1.7 0.00 0.00 0.00 60 1007.9
20260505085904 40 223 0.0 1.7 0.00 0.00 0.00 59 1007.9
20260505085402 40 168 1.7 2.6 0.00 0.00 0.00 58 1007.8
20260505084900 40 242 0.9 1.7 0.00 0.00 0.00 58 1007.8
20260505084358 40 164 0.0 0.0 0.00 0.00 0.00 58 1007.6
20260505083856 40 290 2.6 4.3 0.00 0.00 0.00 58 1007.5
20260505083353 41 177 0.0 0.0 0.00 0.00 0.00 57 1007.6
20260505082849 41 320 3.5 4.3 0.00 0.00 0.00 56 1007.4
20260505082345 41 139 1.7 2.6 0.00 0.00 0.00 56 1007.4
20260505081842 41 128 1.7 1.7 0.00 0.00 0.00 56 1007.4
20260505081339 41 173 1.7 1.7 0.00 0.00 0.00 56 1007.3
20260505080836 41 196 0.9 1.7 0.00 0.00 0.00 56 1007.3
20260505080331 41 190 1.7 1.7 0.00 0.00 0.00 56 1007.0
20260505075827 41 166 1.7 2.6 0.00 0.00 0.00 56 1007.1
20260505075324 41 212 1.7 2.6 0.00 0.00 0.00 56 1007.0
20260505074822 41 208 1.7 1.7 0.00 0.00 0.00 56 1006.9
20260505074319 42 198 0.9 1.7 0.00 0.00 0.00 55 1007.2
20260505073816 42 248 1.7 4.3 0.00 0.00 0.00 54 1007.1
20260505073314 42 304 1.7 2.6 0.00 0.00 0.00 54 1007.2
20260505072811 42 233 1.7 2.6 0.00 0.00 0.00 54 1007.0
20260505072307 42 171 0.9 1.7 0.00 0.00 0.00 55 1007.1
20260505071802 42 175 0.0 0.0 0.00 0.00 0.00 55 1007.2
20260505071259 42 226 1.7 1.7 0.00 0.00 0.00 54 1007.1
20260505070757 42 244 0.9 1.7 0.00 0.00 0.00 54 1007.2
20260505070254 42 121 1.7 1.7 0.00 0.00 0.00 54 1007.2
20260505065748 42 175 0.0 0.0 0.00 0.00 0.00 54 1007.2
20260505065246 42 185 1.7 2.6 0.00 0.00 0.00 54 1007.3
20260505064743 42 210 3.5 4.3 0.00 0.00 0.00 54 1007.3
20260505064240 43 176 1.7 2.6 0.00 0.00 0.00 54 1007.1
20260505063738 43 173 0.0 0.0 0.00 0.00 0.00 55 1007.0
20260505063234 43 277 3.5 4.3 0.00 0.00 0.00 54 1007.1
20260505062730 43 245 1.7 2.6 0.00 0.00 0.00 54 1007.3
20260505062228 43 259 0.0 1.7 0.00 0.00 0.00 55 1007.2
20260505061725 43 321 2.6 4.3 0.00 0.00 0.00 55 1007.2
20260505061223 43 194 0.9 1.7 0.00 0.00 0.00 55 1007.2
20260505060720 43 3 1.7 2.6 0.00 0.00 0.00 55 1007.3
20260505060217 43 152 2.6 4.3 0.00 0.00 0.00 55 1007.3
20260505055712 43 89 0.0 1.7 0.00 0.00 0.00 56 1007.3
20260505055209 42 183 0.0 0.0 0.00 0.00 0.00 57 1007.2
20260505054706 42 164 0.9 1.7 0.00 0.00 0.00 58 1006.9
20260505054204 42 170 0.0 0.0 0.00 0.00 0.00 57 1007.1
20260505053702 43 171 0.0 0.0 0.00 0.00 0.00 56 1006.9
20260505053158 43 172 0.0 0.0 0.00 0.00 0.00 56 1007.0
20260505052655 43 243 1.7 1.7 0.00 0.00 0.00 56 1007.0
20260505052152 43 291 1.7 2.6 0.00 0.00 0.00 56 1006.9
20260505051649 43 233 0.0 0.0 0.00 0.00 0.00 57 1006.8
20260505051147 43 178 0.0 0.0 0.00 0.00 0.00 56 1006.9
20260505050645 43 174 0.0 0.0 0.00 0.00 0.00 55 1006.7
20260505050143 43 184 0.0 0.0 0.00 0.00 0.00 55 1007.0
20260505041612 43 170 0.0 0.0 0.00 0.00 0.00 55 1006.7
20260505041110 43 139 0.0 0.0 0.00 0.00 0.00 55 1006.6
20260505040607 44 173 0.0 0.0 0.00 0.00 0.00 54 1006.6
20260505040104 44 173 0.0 0.0 0.00 0.00 0.00 54 1006.6
20260505035600 44 168 0.0 0.0 0.00 0.00 0.00 53 1006.7
20260505035057 44 179 0.0 0.0 0.00 0.00 0.00 52 1006.7
20260505034553 44 174 0.0 0.0 0.00 0.00 0.00 52 1006.5
20260505034050 45 171 0.0 0.0 0.00 0.00 0.00 51 1006.5
20260505033547 45 178 0.0 0.0 0.00 0.00 0.00 51 1006.4
20260505033045 44 150 0.0 0.0 0.00 0.00 0.00 50 1006.5
20260505032543 45 161 0.0 0.0 0.00 0.00 0.00 51 1006.6
20260505032039 45 175 0.0 0.0 0.00 0.00 0.00 50 1006.5
20260505031537 45 147 0.9 2.6 0.00 0.00 0.00 50 1006.7
20260505031033 45 215 0.9 1.7 0.00 0.00 0.00 50 1006.5
20260505030530 45 168 0.0 0.0 0.00 0.00 0.00 50 1006.6
20260505030026 46 166 0.0 0.0 0.00 0.00 0.00 49 1006.4
20260505025522 46 164 0.0 0.0 0.00 0.00 0.00 49 1006.4
20260505025021 46 181 0.0 0.0 0.00 0.00 0.00 49 1006.5
20260505024518 45 158 0.0 0.0 0.00 0.00 0.00 49 1006.5
20260505024015 45 154 0.0 0.0 0.00 0.00 0.00 48 1006.3
20260505023511 45 155 0.0 1.7 0.00 0.00 0.00 48 1006.3
20260505023009 46 173 0.0 0.0 0.00 0.00 0.00 48 1006.3
20260505022507 46 161 0.0 0.0 0.00 0.00 0.00 48 1006.2
20260505022004 46 168 0.0 0.0 0.00 0.00 0.00 46 1006.0
20260505021500 47 224 1.7 1.7 0.00 0.00 0.00 46 1005.9
20260505020955 47 170 0.9 1.7 0.00 0.00 0.00 45 1005.8
20260505020451 47 179 0.0 0.0 0.00 0.00 0.00 45 1005.8
20260505015948 48 195 0.9 1.7 0.00 0.00 0.00 44 1005.7
20260505015446 48 160 0.0 1.7 0.00 0.00 0.00 43 1005.8
20260505014942 48 254 1.7 2.6 0.00 0.00 0.00 43 1005.6
20260505014439 48 352 1.7 4.3 0.00 0.00 0.00 42 1005.8
20260505013937 49 338 6.1 8.7 0.00 0.00 0.00 42 1005.7
20260505013434 49 39 8.7 10.4 0.00 0.00 0.00 42 1005.7
20260505012931 49 220 5.2 8.7 0.00 0.00 0.00 42 1005.6
20260505012429 49 157 0.9 1.7 0.00 0.00 0.00 44 1005.5
20260505011925 49 332 2.6 4.3 0.00 0.00 0.00 43 1005.4
20260505011421 50 201 0.9 1.7 0.00 0.00 0.00 43 1005.3
20260505010918 50 204 5.2 7.8 0.00 0.00 0.00 43 1005.2
20260505010414 50 239 6.1 12.2 0.00 0.00 0.00 42 1004.9
20260505005910 50 319 5.2 7.8 0.00 0.00 0.00 42 1005.2
20260505005407 51 349 2.6 2.6 0.00 0.00 0.00 42 1004.6
20260505004905 51 196 5.2 10.4 0.00 0.00 0.00 41 1004.7